Regional Weather Roundup
Issued by NWS Cleveland, OH

Home | Current Version | Previous Version | Graphics & Text | Print | Product List | Glossary On
Versions: 1 2 3 4 5 6 7 8 9 10 11 12 13 14 15 16 17 18 19 20 21 22 23 24 25 26 27 28 29 30 31 32 33 34 35 36 37 38 39 40 41 42 43 44 45 46 47 48 49 50
000
ASUS41 KCLE 300912
RWRCLE
OHIO REGIONAL WEATHER ROUNDUP
NATIONAL WEATHER SERVICE WILMINGTON, OH
500 AM EDT FRI SEP 30 2016

NOTE: "FAIR" INDICATES FEW OR NO CLOUDS BELOW 12,000 FEET WITH NO
SIGNIFICANT WEATHER AND/OR OBSTRUCTIONS TO VISIBILITY.

OHZ001>008-015>018-024>027-034-035-043-044-301000-
   NORTHWEST OHIO

CITY           SKY/WX    TMP DP  RH WIND       PRES   REMARKS
DEFIANCE       MOCLDY    62  58  86 NE5       30.10F
FINDLAY        CLOUDY    62  57  83 NE7       30.07F
TOLEDO EXPRESS CLOUDY    61  60  97 E10       30.11S
TOLEDO EXEC    CLOUDY    63  59  87 E9        30.12R
LIMA           LGT RAIN  59  59 100 NE10      30.06F FOG
$$

OHZ009>014-019>023-028>033-038-089-301000-
   NORTHEAST OHIO

CITY           SKY/WX    TMP DP  RH WIND       PRES   REMARKS
CLE-HOPKINS    LGT RAIN  61  56  83 E13       30.14F
CLE-LAKEFRONT  MOCLDY    61  57  87 E9        30.13F
CUY CO. ARPT   NOT AVBL
LORAIN-ELYRIA  NOT AVBL
ASHTABULA      LGT RAIN  58  57  97 E10       30.22R
AKRON-CANTON   LGT RAIN  59  56  89 E14       30.12F
WOOSTER        CLOUDY    58  57  97 E12       30.11S
MANSFIELD      CLOUDY    59  58  96 E15G24    30.08F
YOUNGSTOWN     LGT RAIN  57  55  93 E14       30.17S
$$

OHZ042-051>053-060>062-070>072-077>081-301000-
  SOUTHWEST OHIO

CITY           SKY/WX    TMP DP  RH WIND       PRES   REMARKS
CINC-COVINGTON CLOUDY    57  55  94 SE5       30.02S
CINC-LUNKEN    CLOUDY    54  54 100 CALM      30.04R FOG
HAMILTON       MOCLDY    56  55  97 CALM      30.05R
DAYTON         CLOUDY    58  57  97 CALM      30.05R
WRIGHT-PAT AFB CLOUDY    58  58 100 CALM      30.03R
DAYTON GENERAL FOG       56  54  93 CALM      30.03R VSB 1
WILMINGTON     CLOUDY    56  56 100 N3        30.01F FOG
$$

OHZ036-037-039>041-045>050-054>059-063>069-073>076-082>088-301000-
  CENTRAL AND SOUTHEAST OHIO

CITY           SKY/WX    TMP DP  RH WIND       PRES   REMARKS
COLUMBUS       CLOUDY    62  61  96 E7        30.03F
OSU AIRPORT    CLOUDY    61  60  97 E8        30.04F
BOLTON FIELD   CLOUDY    60  60 100 E10       30.04S
RICKENBACK AFB CLOUDY    60  60 100 E8        30.03S
NEWARK         CLOUDY    61  59  93 E7        30.04F
MARION         MOCLDY    59  57  93 NE5       30.07F
LANCASTER      LGT RAIN  62  60  93 E7        30.04S
ZANESVILLE     CLOUDY    61  59  93 E7        30.05F
NEW PHILLY     LGT RAIN  61  59  93 MISG      30.10F
$$



USA.gov is the U.S. government's official web portal to all federal, state and local government web resources and services.